GIA510 WIII-WBGG

Flight info

Callsign GIA510
Flight time 1h 18m
Altitude 39000
Route ABASA W14 PNK R455 PAPSA PAPSA1E
Aircraft A20N/M-SDE2E3FGHIRWXY/LB1

Departure

Time 2026-05-07 14:49
Airport Soekarno-Hatta International Airport (WIII)

Arrival

Time 2026-05-07 16:08
Airport Kuching International Airport (WBGG)
Time Latitude Longitude Altitude Speed Heading
2026-05-07 14:11 -6.12226 106.64959 36 ft 0 kts 171°
2026-05-07 14:38 -6.12206 106.64955 34 ft 4 kts 166°
2026-05-07 14:39 -6.12179 106.64949 33 ft 4 kts 169°
2026-05-07 14:39 -6.12153 106.64943 34 ft 4 kts 152°
2026-05-07 14:39 -6.12142 106.64931 34 ft 2 kts 68°
2026-05-07 14:39 -6.12144 106.64926 35 ft 0 kts 68°
2026-05-07 14:43 -6.12142 106.64931 34 ft 3 kts 68°
2026-05-07 14:44 -6.12118 106.64978 36 ft 12 kts 49°
2026-05-07 14:44 -6.12043 106.65005 35 ft 10 kts
2026-05-07 14:44 -6.11959 106.65007 35 ft 14 kts 355°
2026-05-07 14:44 -6.11870 106.64962 35 ft 16 kts 291°
2026-05-07 14:45 -6.11899 106.64853 36 ft 18 kts 249°
2026-05-07 14:45 -6.11944 106.64732 34 ft 20 kts 248°
2026-05-07 14:45 -6.12000 106.64599 36 ft 21 kts 240°
2026-05-07 14:45 -6.12060 106.64457 36 ft 23 kts 252°
2026-05-07 14:46 -6.12119 106.64303 35 ft 24 kts 248°
2026-05-07 14:46 -6.12185 106.64141 37 ft 26 kts 248°
2026-05-07 14:46 -6.12249 106.63981 38 ft 18 kts 251°
2026-05-07 14:46 -6.12236 106.63898 37 ft 11 kts 314°
2026-05-07 14:47 -6.12219 106.63887 39 ft 0 kts 334°
2026-05-07 14:48 -6.12216 106.63886 39 ft 3 kts 334°
2026-05-07 14:48 -6.12168 106.63880 39 ft 12 kts
2026-05-07 14:48 -6.12070 106.63942 37 ft 22 kts 34°
2026-05-07 14:48 -6.12046 106.63971 37 ft 12 kts 69°
2026-05-07 14:49 -6.11946 106.64246 36 ft 77 kts 70°
2026-05-07 14:49 -6.11671 106.64937 38 ft 135 kts 68°
2026-05-07 14:49 -6.11260 106.65945 94 ft 173 kts 68°
2026-05-07 14:49 -6.10755 106.67023 738 ft 169 kts 59°
2026-05-07 14:50 -6.10009 106.67922 1393 ft 168 kts 47°
2026-05-07 14:50 -6.09184 106.68756 1975 ft 172 kts 48°
2026-05-07 14:50 -6.08308 106.69667 2343 ft 190 kts 49°
2026-05-07 14:50 -6.07358 106.70680 2711 ft 210 kts 50°
2026-05-07 14:51 -6.06294 106.71832 3111 ft 236 kts 49°
2026-05-07 14:51 -6.05124 106.73101 3695 ft 258 kts 49°
2026-05-07 14:51 -6.03864 106.74466 4176 ft 269 kts 49°
2026-05-07 14:51 -6.02600 106.75830 4299 ft 266 kts 49°
2026-05-07 14:52 -6.01354 106.77176 4415 ft 267 kts 49°
2026-05-07 14:52 -6.00091 106.78542 4519 ft 268 kts 49°
2026-05-07 14:52 -5.98819 106.79919 4645 ft 269 kts 49°
2026-05-07 14:52 -5.97544 106.81299 4745 ft 270 kts 49°
2026-05-07 14:53 -5.96229 106.82651 4845 ft 270 kts 43°
2026-05-07 14:53 -5.94690 106.83774 5068 ft 276 kts 34°
2026-05-07 14:53 -5.93059 106.84799 5925 ft 276 kts 35°
2026-05-07 14:53 -5.91441 106.85835 6972 ft 277 kts 35°
2026-05-07 14:54 -5.89798 106.86896 7904 ft 281 kts 35°
2026-05-07 14:54 -5.88143 106.87964 8799 ft 286 kts 35°
2026-05-07 14:54 -5.86479 106.89036 9714 ft 290 kts 34°
2026-05-07 14:54 -5.84765 106.90140 10421 ft 300 kts 34°
2026-05-07 14:55 -5.82935 106.91319 10727 ft 324 kts 34°
2026-05-07 14:55 -5.80976 106.92580 11049 ft 344 kts 34°
2026-05-07 14:55 -5.78939 106.93888 11437 ft 350 kts 34°
2026-05-07 14:55 -5.76891 106.95201 11556 ft 349 kts 34°
2026-05-07 14:56 -5.74846 106.96513 11673 ft 350 kts 34°
2026-05-07 14:56 -5.72798 106.97827 11777 ft 350 kts 34°
2026-05-07 14:56 -5.70734 106.99153 11879 ft 351 kts 34°
2026-05-07 14:56 -5.68666 107.00482 12155 ft 355 kts 34°
2026-05-07 14:57 -5.66578 107.01823 12999 ft 356 kts 34°
2026-05-07 14:57 -5.64484 107.03170 13757 ft 361 kts 34°
2026-05-07 14:57 -5.62352 107.04540 14426 ft 364 kts 34°
2026-05-07 14:57 -5.60229 107.05903 15089 ft 368 kts 34°
2026-05-07 14:58 -5.58061 107.07295 15733 ft 372 kts 34°
2026-05-07 14:58 -5.55867 107.08705 16356 ft 377 kts 34°
2026-05-07 14:58 -5.53648 107.10130 16556 ft 379 kts 34°
2026-05-07 14:58 -5.51424 107.11558 16700 ft 379 kts 34°
2026-05-07 14:59 -5.49193 107.12980 16816 ft 380 kts 32°
2026-05-07 14:59 -5.46828 107.14191 16935 ft 384 kts 24°
2026-05-07 14:59 -5.44315 107.15057 17518 ft 388 kts 17°
2026-05-07 14:59 -5.41670 107.15663 18168 ft 392 kts 14°
2026-05-07 15:00 -5.38992 107.16257 18711 ft 394 kts 14°
2026-05-07 15:00 -5.36307 107.16857 19318 ft 396 kts 14°
2026-05-07 15:00 -5.33615 107.17459 19885 ft 397 kts 14°
2026-05-07 15:00 -5.30906 107.18065 20450 ft 399 kts 14°
2026-05-07 15:01 -5.28186 107.18673 21006 ft 402 kts 14°
2026-05-07 15:01 -5.25445 107.19283 21559 ft 404 kts 14°
2026-05-07 15:01 -5.22692 107.19897 22084 ft 407 kts 14°
2026-05-07 15:01 -5.19922 107.20514 22612 ft 409 kts 14°
2026-05-07 15:02 -5.17131 107.21135 23143 ft 411 kts 14°
2026-05-07 15:02 -5.14322 107.21759 23583 ft 415 kts 14°
2026-05-07 15:02 -5.11530 107.22381 23744 ft 417 kts 14°
2026-05-07 15:02 -5.08680 107.23015 24085 ft 420 kts 14°
2026-05-07 15:03 -5.05822 107.23651 24540 ft 421 kts 14°
2026-05-07 15:03 -5.02941 107.24293 24763 ft 424 kts 14°
2026-05-07 15:03 -5.00061 107.24933 24858 ft 424 kts 14°
2026-05-07 15:03 -4.97173 107.25576 24879 ft 424 kts 14°
2026-05-07 15:04 -4.94294 107.26216 24873 ft 424 kts 14°
2026-05-07 15:04 -4.91437 107.26851 25017 ft 427 kts 14°
2026-05-07 15:04 -4.88531 107.27498 25482 ft 428 kts 14°
2026-05-07 15:04 -4.85620 107.28145 25880 ft 430 kts 14°
2026-05-07 15:05 -4.82682 107.28798 26254 ft 433 kts 14°
2026-05-07 15:05 -4.79733 107.29455 26606 ft 436 kts 14°
2026-05-07 15:05 -4.76759 107.30116 26962 ft 438 kts 14°
2026-05-07 15:05 -4.73774 107.30779 27314 ft 441 kts 14°
2026-05-07 15:06 -4.70771 107.31446 27651 ft 444 kts 14°
2026-05-07 15:06 -4.67746 107.32118 27993 ft 446 kts 14°
2026-05-07 15:06 -4.64707 107.32794 28326 ft 448 kts 14°
2026-05-07 15:06 -4.61654 107.33473 28672 ft 450 kts 14°
2026-05-07 15:07 -4.58584 107.34154 28981 ft 453 kts 14°
2026-05-07 15:07 -4.55499 107.34840 29303 ft 455 kts 14°
2026-05-07 15:07 -4.52403 107.35529 29639 ft 457 kts 14°
2026-05-07 15:07 -4.49290 107.36220 29935 ft 459 kts 14°
2026-05-07 15:08 -4.46206 107.36904 30206 ft 461 kts 14°
2026-05-07 15:08 -4.43067 107.37601 30514 ft 462 kts 14°
2026-05-07 15:08 -4.39917 107.38300 30793 ft 464 kts 14°
2026-05-07 15:08 -4.36761 107.39001 31105 ft 466 kts 13°
2026-05-07 15:09 -4.33593 107.39704 31466 ft 465 kts 13°
2026-05-07 15:09 -4.30434 107.40406 31842 ft 465 kts 13°
2026-05-07 15:09 -4.27280 107.41107 32216 ft 464 kts 13°
2026-05-07 15:09 -4.24123 107.41807 32587 ft 463 kts 13°
2026-05-07 15:10 -4.22042 107.42269 32817 ft 463 kts 13°
2026-05-07 15:10 -4.18902 107.42967 33160 ft 462 kts 13°
2026-05-07 15:10 -4.14734 107.43892 33614 ft 462 kts 13°
2026-05-07 15:10 -4.11599 107.44589 33960 ft 460 kts 13°
2026-05-07 15:11 -4.08472 107.45282 34246 ft 460 kts 13°
2026-05-07 15:11 -4.05356 107.45974 34551 ft 458 kts 13°
2026-05-07 15:11 -4.04080 107.46257 34677 ft 458 kts 13°
2026-05-07 15:11 -4.03427 107.46402 34739 ft 458 kts 13°
2026-05-07 15:12 -4.00318 107.47092 35037 ft 457 kts 13°
2026-05-07 15:12 -3.97225 107.47778 35322 ft 456 kts 13°
2026-05-07 15:12 -3.94129 107.48464 35624 ft 455 kts 13°
2026-05-07 15:12 -3.91041 107.49149 35937 ft 453 kts 13°
2026-05-07 15:13 -3.87965 107.49831 36265 ft 452 kts 13°
2026-05-07 15:13 -3.84889 107.50514 36567 ft 451 kts 13°
2026-05-07 15:13 -3.81829 107.51192 36870 ft 450 kts 13°
2026-05-07 15:13 -3.78776 107.51869 37181 ft 448 kts 13°
2026-05-07 15:14 -3.75733 107.52543 37481 ft 447 kts 13°
2026-05-07 15:14 -3.72695 107.53217 37772 ft 446 kts 13°
2026-05-07 15:14 -3.69671 107.53887 38029 ft 446 kts 13°
2026-05-07 15:14 -3.66649 107.54554 38299 ft 444 kts 13°
2026-05-07 15:15 -3.63627 107.55220 38555 ft 443 kts 13°
2026-05-07 15:15 -3.60621 107.55883 38762 ft 443 kts 13°
2026-05-07 15:15 -3.54644 107.57202 38870 ft 442 kts 13°
2026-05-07 15:16 -3.48624 107.58531 38870 ft 442 kts 13°
2026-05-07 15:16 -3.42598 107.59861 38871 ft 444 kts 13°
2026-05-07 15:17 -3.36559 107.61193 38872 ft 444 kts 13°
2026-05-07 15:17 -3.30526 107.62524 38870 ft 444 kts 13°
2026-05-07 15:18 -3.24473 107.63859 38870 ft 445 kts 13°
2026-05-07 15:18 -3.18462 107.65184 38873 ft 445 kts 13°
2026-05-07 15:19 -3.12393 107.66522 38870 ft 446 kts 13°
2026-05-07 15:19 -3.06322 107.67860 38870 ft 447 kts 13°
2026-05-07 15:20 -3.00250 107.69199 38876 ft 448 kts 13°
2026-05-07 15:20 -2.94161 107.70541 38874 ft 448 kts 13°
2026-05-07 15:21 -2.88061 107.71886 38875 ft 449 kts 13°
2026-05-07 15:21 -2.81957 107.73231 38876 ft 449 kts 13°
2026-05-07 15:22 -2.75878 107.74681 38876 ft 449 kts 18°
2026-05-07 15:22 -2.70072 107.76975 38876 ft 448 kts 27°
2026-05-07 15:23 -2.64721 107.80070 38877 ft 447 kts 32°
2026-05-07 15:23 -2.59412 107.83329 38878 ft 448 kts 32°
2026-05-07 15:24 -2.54101 107.86581 38881 ft 447 kts 32°
2026-05-07 15:24 -2.48797 107.89832 38876 ft 447 kts 32°
2026-05-07 15:25 -2.43504 107.93078 38876 ft 446 kts 32°
2026-05-07 15:25 -2.38217 107.96320 38871 ft 445 kts 33°
2026-05-07 15:26 -2.32950 107.99549 38871 ft 446 kts 33°
2026-05-07 15:26 -2.27644 108.02802 38869 ft 446 kts 33°
2026-05-07 15:27 -2.22358 108.06043 38869 ft 445 kts 33°
2026-05-07 15:27 -2.17106 108.09262 38863 ft 445 kts 33°
2026-05-07 15:28 -2.11824 108.12501 38860 ft 445 kts 33°
2026-05-07 15:28 -2.06510 108.15760 38858 ft 446 kts 33°
2026-05-07 15:29 -2.01223 108.19003 38855 ft 446 kts 33°
2026-05-07 15:29 -1.95961 108.22232 38859 ft 446 kts 33°
2026-05-07 15:30 -1.90664 108.25481 38860 ft 447 kts 33°
2026-05-07 15:30 -1.85340 108.28748 38857 ft 448 kts 33°
2026-05-07 15:31 -1.80014 108.32014 38856 ft 449 kts 33°
2026-05-07 15:31 -1.74680 108.35287 38861 ft 450 kts 33°
2026-05-07 15:32 -1.69362 108.38548 38865 ft 451 kts 33°
2026-05-07 15:32 -1.64001 108.41836 38866 ft 452 kts 33°
2026-05-07 15:33 -1.58625 108.45133 38873 ft 453 kts 33°
2026-05-07 15:33 -1.53247 108.48430 38880 ft 454 kts 32°
2026-05-07 15:34 -1.47902 108.51707 38868 ft 452 kts 32°
2026-05-07 15:34 -1.42546 108.54991 38867 ft 451 kts 32°
2026-05-07 15:35 -1.37187 108.58277 38869 ft 451 kts 32°
2026-05-07 15:35 -1.31837 108.61558 38869 ft 450 kts 32°
2026-05-07 15:36 -1.26498 108.64831 38865 ft 450 kts 32°
2026-05-07 15:36 -1.21155 108.68107 38866 ft 451 kts 32°
2026-05-07 15:37 -1.15839 108.71366 38870 ft 451 kts 32°
2026-05-07 15:37 -1.10491 108.74644 38870 ft 451 kts 32°
2026-05-07 15:38 -1.05140 108.77923 38873 ft 451 kts 32°
2026-05-07 15:38 -0.99790 108.81203 38875 ft 451 kts 32°
2026-05-07 15:39 -0.94440 108.84481 38870 ft 451 kts 32°
2026-05-07 15:39 -0.89118 108.87743 38873 ft 451 kts 32°
2026-05-07 15:40 -0.83772 108.91019 38868 ft 451 kts 32°
2026-05-07 15:40 -0.78422 108.94296 38867 ft 450 kts 32°
2026-05-07 15:41 -0.73081 108.97569 38862 ft 450 kts 32°
2026-05-07 15:41 -0.67734 109.00845 38859 ft 450 kts 32°
2026-05-07 15:42 -0.62395 109.04116 38858 ft 450 kts 32°
2026-05-07 15:42 -0.57055 109.07387 38853 ft 450 kts 32°
2026-05-07 15:43 -0.51744 109.10641 38852 ft 450 kts 32°
2026-05-07 15:43 -0.46404 109.13913 38849 ft 450 kts 32°
2026-05-07 15:44 -0.41059 109.17187 38848 ft 450 kts 32°
2026-05-07 15:44 -0.35713 109.20461 38849 ft 451 kts 32°
2026-05-07 15:45 -0.30360 109.23741 38853 ft 451 kts 32°
2026-05-07 15:45 -0.24997 109.27026 38850 ft 452 kts 32°
2026-05-07 15:46 -0.19670 109.30289 38697 ft 453 kts 32°
2026-05-07 15:46 -0.16981 109.31936 38162 ft 455 kts 32°
2026-05-07 15:46 -0.14263 109.33602 37309 ft 460 kts 32°
2026-05-07 15:47 -0.11515 109.35286 36300 ft 467 kts 32°
2026-05-07 15:47 -0.08723 109.36997 35379 ft 472 kts 32°
2026-05-07 15:47 -0.05917 109.38708 34589 ft 473 kts 31°
2026-05-07 15:47 -0.03087 109.40405 33785 ft 475 kts 31°
2026-05-07 15:48 -0.00242 109.42103 32958 ft 475 kts 31°
2026-05-07 15:48 0.02598 109.43796 32084 ft 476 kts 32°
2026-05-07 15:48 0.05438 109.45493 31226 ft 476 kts 32°
2026-05-07 15:48 0.08239 109.47169 30642 ft 471 kts 32°
2026-05-07 15:49 0.11031 109.48841 30014 ft 467 kts 32°
2026-05-07 15:49 0.13800 109.50500 29398 ft 461 kts 32°
2026-05-07 15:49 0.16527 109.52135 28800 ft 455 kts 32°
2026-05-07 15:49 0.19228 109.53754 28206 ft 449 kts 33°
2026-05-07 15:50 0.21899 109.55355 27606 ft 443 kts 32°
2026-05-07 15:50 0.24530 109.56932 27018 ft 438 kts 33°
2026-05-07 15:50 0.27130 109.58491 26387 ft 435 kts 32°
2026-05-07 15:50 0.29706 109.60035 25853 ft 429 kts 32°
2026-05-07 15:51 0.32265 109.61569 25274 ft 426 kts 32°
2026-05-07 15:51 0.34795 109.63086 24687 ft 423 kts 32°
2026-05-07 15:51 0.37306 109.64591 24109 ft 420 kts 32°
2026-05-07 15:51 0.39769 109.66067 23535 ft 417 kts 32°
2026-05-07 15:52 0.42252 109.67555 22887 ft 414 kts 32°
2026-05-07 15:52 0.44705 109.69026 22383 ft 407 kts 32°
2026-05-07 15:52 0.47115 109.70470 21823 ft 402 kts 32°
2026-05-07 15:52 0.49504 109.71902 21272 ft 398 kts 32°
2026-05-07 15:53 0.51864 109.73317 20690 ft 394 kts 32°
2026-05-07 15:53 0.54208 109.74722 20154 ft 390 kts 32°
2026-05-07 15:53 0.56522 109.76109 19577 ft 387 kts 32°
2026-05-07 15:53 0.58828 109.77492 19036 ft 384 kts 32°
2026-05-07 15:54 0.61108 109.78858 18493 ft 380 kts 32°
2026-05-07 15:54 0.63370 109.80214 17941 ft 377 kts 32°
2026-05-07 15:54 0.65612 109.81558 17401 ft 373 kts 32°
2026-05-07 15:54 0.67802 109.82871 16875 ft 368 kts 32°
2026-05-07 15:55 0.69988 109.84181 16357 ft 365 kts 32°
2026-05-07 15:55 0.72152 109.85478 15834 ft 361 kts 32°
2026-05-07 15:55 0.74306 109.86770 15283 ft 359 kts 32°
2026-05-07 15:55 0.76435 109.88047 14769 ft 357 kts 32°
2026-05-07 15:56 0.78561 109.89322 14281 ft 354 kts 32°
2026-05-07 15:56 0.80669 109.90586 13770 ft 352 kts 32°
2026-05-07 15:56 0.82767 109.91843 13223 ft 350 kts 32°
2026-05-07 15:56 0.84838 109.93086 12741 ft 345 kts 32°
2026-05-07 15:57 0.86889 109.94315 12232 ft 342 kts 31°
2026-05-07 15:57 0.88920 109.95533 11758 ft 339 kts 32°
2026-05-07 15:57 0.90887 109.96712 11275 ft 337 kts 32°
2026-05-07 15:57 0.92945 109.97946 10751 ft 335 kts 31°
2026-05-07 15:58 0.94263 109.98736 10457 ft 333 kts 31°
2026-05-07 15:58 0.96862 110.00293 10238 ft 316 kts 31°
2026-05-07 15:58 0.98686 110.01387 10109 ft 304 kts 31°
2026-05-07 15:58 1.00482 110.02464 9818 ft 298 kts 31°
2026-05-07 15:59 1.02234 110.03515 9690 ft 292 kts 31°
2026-05-07 15:59 1.03404 110.04216 9559 ft 296 kts 31°
2026-05-07 15:59 1.05185 110.05285 9191 ft 300 kts 31°
2026-05-07 15:59 1.06970 110.06355 8807 ft 299 kts 31°
2026-05-07 16:00 1.08751 110.07423 8427 ft 297 kts 31°
2026-05-07 16:00 1.10518 110.08482 8037 ft 294 kts 32°
2026-05-07 16:00 1.12269 110.09533 7658 ft 292 kts 31°
2026-05-07 16:00 1.14007 110.10574 7286 ft 290 kts 32°
2026-05-07 16:01 1.15718 110.11600 7014 ft 284 kts 32°
2026-05-07 16:01 1.17373 110.12592 6909 ft 272 kts 32°
2026-05-07 16:01 1.18967 110.13548 6812 ft 260 kts 32°
2026-05-07 16:01 1.20483 110.14428 6720 ft 250 kts 28°
2026-05-07 16:02 1.21987 110.15211 6637 ft 238 kts 28°
2026-05-07 16:02 1.23428 110.15967 6519 ft 230 kts 28°
2026-05-07 16:02 1.24841 110.16712 6217 ft 231 kts 28°
2026-05-07 16:02 1.26292 110.17477 5671 ft 241 kts 28°
2026-05-07 16:03 1.27821 110.18284 4908 ft 255 kts 28°
2026-05-07 16:03 1.29418 110.19118 4106 ft 265 kts 28°
2026-05-07 16:03 1.31066 110.19973 3636 ft 260 kts 28°
2026-05-07 16:03 1.32614 110.20776 3516 ft 248 kts 28°
2026-05-07 16:04 1.34110 110.21552 3424 ft 237 kts 28°
2026-05-07 16:04 1.35547 110.22299 3343 ft 226 kts 28°
2026-05-07 16:04 1.36908 110.23007 3254 ft 215 kts 28°
2026-05-07 16:04 1.38204 110.23681 3162 ft 205 kts 28°
2026-05-07 16:05 1.39467 110.24339 2900 ft 206 kts 28°
2026-05-07 16:05 1.40763 110.25016 2400 ft 213 kts 28°
2026-05-07 16:05 1.42096 110.25712 1664 ft 220 kts 27°
2026-05-07 16:05 1.43443 110.26414 1215 ft 213 kts 27°
2026-05-07 16:06 1.44683 110.27101 1062 ft 191 kts 35°
2026-05-07 16:06 1.45577 110.27942 1010 ft 163 kts 51°
2026-05-07 16:06 1.46125 110.28809 998 ft 145 kts 63°
2026-05-07 16:06 1.46504 110.29748 982 ft 145 kts 69°
2026-05-07 16:07 1.46874 110.30683 825 ft 144 kts 68°
2026-05-07 16:07 1.47255 110.31614 632 ft 145 kts 68°
2026-05-07 16:07 1.47636 110.32548 394 ft 144 kts 68°
2026-05-07 16:07 1.48012 110.33476 173 ft 145 kts 69°
2026-05-07 16:08 1.48371 110.34391 87 ft 133 kts 69°
2026-05-07 16:08 1.48645 110.35066 75 ft 75 kts 68°
2026-05-07 16:08 1.48736 110.35281 65 ft 0 kts 27°
2026-05-07 16:08 1.48773 110.35283 69 ft 11 kts 350°
2026-05-07 16:09 1.48811 110.35272 69 ft 0 kts 334°
2026-05-07 16:09 1.48829 110.35263 67 ft 9 kts 334°
2026-05-07 16:10 1.48878 110.35199 68 ft 15 kts 265°
2026-05-07 16:10 1.48837 110.35094 73 ft 18 kts 246°
2026-05-07 16:10 1.48793 110.34975 76 ft 19 kts 249°
2026-05-07 16:10 1.48739 110.34846 70 ft 21 kts 246°
2026-05-07 16:11 1.48683 110.34708 83 ft 22 kts 249°
2026-05-07 16:11 1.48671 110.34586 87 ft 12 kts 314°
2026-05-07 16:11 1.48685 110.34505 87 ft 14 kts 249°
2026-05-07 16:11 1.48646 110.34409 89 ft 16 kts 248°
2026-05-07 16:12 1.48603 110.34299 89 ft 17 kts 239°
2026-05-07 16:12 1.48635 110.34237 90 ft 7 kts 332°
2026-05-07 16:12 1.48652 110.34231 90 ft 0 kts 340°
2026-05-07 16:12 1.48656 110.34229 89 ft 0 kts 339°